Regional Weather Roundup
Issued by NWS

Home | Current Version | Previous Version | Graphics & Text | Print | Product List | Glossary On
Versions: 1 2 3 4 5 6 7 8 9 10 11 12 13 14 15 16 17 18 19 20 21 22 23 24 25 26 27 28 29 30 31 32 33 34 35 36 37 38 39 40 41 42 43 44 45 46 47 48 49 50
785
ASUS44 KLIX 300705
RWRLA
LOUISIANA WEATHER ROUNDUP
NATIONAL WEATHER SERVICE NEW ORLEANS LA
200 AM CDT WED JUL 30 2014

NOTE: "FAIR" INDICATES FEW OR NO CLOUDS BELOW 12,000 FEET WITH NO
      SIGNIFICANT WEATHER AND/OR OBSTRUCTIONS TO VISIBILITY.
      SKY/WX - SKY CONDITION AND SIGNIFICANT WEATHER.
      TMP - AIR TEMPERATURE.    DP   - DEWPOINT TEMPERATURE.
      RH  - RELATIVE HUMIDITY.  PRES - PRESSURE.
      HX  - HEAT INDEX.         WCI  - WIND CHILL INDEX.

*  THESE STATIONS ARE NOT NWS OR FAA STATIONS AND ARE NOT UNDER
   NWS QUALITY CONTROL.

LAZ040-048-061>063-065-066-069-300800-
SOUTHEAST LOUISIANA

CITY           SKY/WX    TMP DP  RH WIND       PRES   REMARKS
N.O. AUDUBON     N/A     81  67  60 MISG        N/A
N.O. INTL ARPT PTCLDY    79  64  60 NE12      30.04F
N.O. LAKEFRONT CLEAR     80  68  66 NE20      30.04F
N.O. DOWNTOWN* FAIR      81  63  54 N5        30.04F
SLIDELL        CLEAR     71  67  87 N3        30.04F
BATON ROUGE    CLEAR     72  66  81 NE7       30.06S
BOOTHVILLE     CLEAR     76  71  85 NW3       30.02F
BELLE CHASSE   PTCLDY    77  65  66 NE8       30.03F
BOGALUSA*      FAIR      69  64  84 CALM      30.07F
GALLIANO*      NOT AVBL
NEW ROADS*     FAIR      73  65  77 NE6       30.06S
GONZALES*      FAIR      73  71  93 CALM      30.04F
HAMMOND*       CLEAR     72  64  78 N3        30.07S
HOUMA*         MOCLDY    74  67  76 N7        30.03F
PORT FOURCHON* SUNNY     81  73  78 N3        30.03F

$$

LAZ041-044-053-054-300800-
SOUTHWEST LOUISIANA

CITY           SKY/WX    TMP DP  RH WIND       PRES   REMARKS
LAKE CHARLES   CLEAR     73  70  90 CALM      30.04S
LAFAYETTE      CLEAR     73  69  87 NE5       30.06R
PATTERSON      CLEAR     73  72  94 NE7       30.07F
SALT POINT       N/A     76  72  87 CALM      30.03F
NEW IBERIA     CLEAR     75  69  81 NE7       30.05S
CHENAULT AIRPK CLEAR     74  69  84 CALM      30.06S

$$

LAZ027-028-300800-
CENTRAL LOUISIANA

CITY           SKY/WX    TMP DP  RH WIND       PRES   REMARKS
FORT POLK      CLEAR     74  68  81 E6        30.08R
ALEXANDRIA INT CLEAR     74  65  73 NE5       30.06S
ALEXANDRIA     CLEAR     72  66  81 NE3       30.08S

$$

LAZ001-002-300800-
NORTHWEST LOUISIANA

CITY           SKY/WX    TMP DP  RH WIND       PRES   REMARKS
SHREVEPORT     PTCLDY    74  65  73 SE3       30.07S
BARKSDALE AFB  CLEAR     69  64  83 SE5       30.07S
DTN SHREVEPORT CLEAR     74  63  68 SE5       30.07S

$$

LAZ014-016-300800-
NORTHEAST LOUISIANA

CITY           SKY/WX    TMP DP  RH WIND       PRES   REMARKS
MONROE         CLEAR     68  62  81 CALM      30.09R
TALLULAH       CLEAR     69  61  75 NE5       30.08S

$$




USA.gov is the U.S. government's official web portal to all federal, state and local government web resources and services.